Regional Weather Roundup
Issued by NWS

Home | Current Version | Previous Version | Graphics & Text | Print | Product List | Glossary On
Versions: 1 2 3 4 5 6 7 8 9 10 11 12 13 14 15 16 17 18 19 20 21 22 23 24 25 26 27 28 29 30 31 32 33 34 35 36 37 38 39 40 41 42 43 44 45 46 47 48 49 50
000
ASUS43 KIND 221609
RWRIN

WEATHER ROUNDUP FOR INDIANA
NATIONAL WEATHER SERVICE INDIANAPOLIS IN
1200 PM EDT TUE AUG 22 2017

NOTE: "FAIR" INDICATES FEW OR NO CLOUDS BELOW 12,000 FEET WITH NO
SIGNIFICANT WEATHER AND/OR OBSTRUCTIONS TO VISIBILITY.

* - STATION DOES NOT REPORT WEATHER SUCH AS PRECIPITATION OR FOG.

+ - STATION NOT QUALITY CONTROLLED BY THE NATIONAL WEATHER SERVICE.
    USE DATA WITH CAUTION...ESPECIALLY DEWPOINT AND RELATIVE
    HUMIDITY OBSERVATIONS.

INZ001>003-010>013-019-020-221700-
NORTHWEST INDIANA

CITY           SKY/WX    TMP DP  RH WIND       PRES   REMARKS
GARY /AIRPORT/ PTSUNNY   75  66  73 W16G28    29.88R
KNOX *+        PTSUNNY   73  66  78 W12       29.87S
LA PORTE +     CLOUDY    74  68  80 W13G21    29.88S
MICHIGAN CITY+ CLOUDY    72  68  88 W10       29.88R
MONTICELLO +   CLOUDY    71  69  95 SW9       29.92R
RENSSELAER +   PTSUNNY   73  64  73 SW7       29.90F
VALPARAISO     CLOUDY    75  69  81 W14       29.89R

$$

LMZ046-743>745-221700-
SOUTHERN LAKE MICHIGAN

STATION/POSITION TIME  TEMP    WIND        PRES    WAVE
                       AIR SEA DIR/SP/G            HT
                 (UTC) (F)     (DEG/KT/KT) (MB)    (FT)
BURNS HARBOR     1540   73     260/ 15/ 19 1011.9S
MICHIGAN CITY    1540   72     240/ 21/ 23   N/A
5NW MICH CITY    1600   72 74  270/ 14/ 19   N/A     4

$$

INZ004-005-014>016-021>024-221700-
NORTH CENTRAL INDIANA

CITY           SKY/WX    TMP DP  RH WIND       PRES   REMARKS
ELKHART        CLOUDY    73  68  83 W13       29.86
GOSHEN         MOSUNNY   74  66  76 W14G25    29.86F
LOGANSPORT +   PTSUNNY   70  68  94 SW8       29.92R
PERU/GRISSOM   PTSUNNY   71  71 100 SW9       29.90F
ROCHESTER +    CLOUDY    73  68  83 SW9       29.90S
SOUTH BEND     CLOUDY    73  69  87 W13G21    29.87S
WARSAW +       PTSUNNY   72  68  88 SW7       29.88F

$$

INZ006>009-017-018-025>027-221700-
NORTHEAST INDIANA

CITY           SKY/WX    TMP DP  RH WIND       PRES   REMARKS
AUBURN +       CLOUDY    73  66  78 SW9G16    29.88F
FORT WAYNE     CLOUDY    72  66  81 SW12      29.90S
HUNTINGTON +   CLOUDY    70  68  93 SW6       29.91S

$$

INZ028-029-035-036-043>045-051>053-221700-
WEST CENTRAL INDIANA

CITY           SKY/WX    TMP DP  RH WIND       PRES   REMARKS
GREENCASTLE +  CLOUDY    72  70  94 S6        29.96R
LAFAYETTE      PTSUNNY   72  70  93 W8        29.92R
TERRE HAUTE    LGT RAIN  74  70  87 S9        29.96R

$$

INZ030>032-037>040-046>048-054>057-064-065-221700-
CENTRAL INDIANA

CITY           SKY/WX    TMP DP  RH WIND       PRES   REMARKS
CP ATTERBURY + CLOUDY    72  70  94 SW5       29.99R
COLUMBUS       PTSUNNY   73  68  83 W6        29.98R
FRANKFORT +    PTSUNNY   75  71  87 W6        29.94S
GREENWOOD *+   CLOUDY   N/A N/A N/A S7        29.98R
INDIANAPOLIS   LGT RAIN  72  69  90 S14       29.95R
-EAGLE CREEK   CLOUDY    73  69  87 S9        29.94R
KOKOMO +       PTSUNNY   72  70  94 SW8       29.93S
MARION +       CLOUDY    70  66  88 SW6       29.93F
MT COMFORT *+  CLOUDY    72  68  88 SW6       29.96R
SHELBYVILLE    LGT RAIN  75  69  81 SW8       29.98R
ZIONSVILLE +   LGT RAIN  71  69  93 S7        29.94S

$$

INZ033-034-041-042-049-050-058-059-221700-
EAST CENTRAL INDIANA

CITY           SKY/WX    TMP DP  RH WIND       PRES   REMARKS
MUNCIE         CLOUDY    75  68  78 SW7       29.93S
RICHMOND +     CLOUDY    73  70  88 W8        29.96F

$$

INZ060-061-067>069-081>083-085>088-221700-
SOUTHWEST INDIANA

CITY           SKY/WX    TMP DP  RH WIND       PRES   REMARKS
EVANSVILLE     CLOUDY    79  73  82 W3        29.99F
HUNTINGBURG +  CLOUDY    81  73  76 NW7       29.99S
WASHINGTON +   CLOUDY    74  70  89 MISG      29.97F

$$

INZ062-063-066-070>080-084-089>092-221700-
SOUTH CENTRAL AND SOUTHEAST INDIANA

CITY           SKY/WX    TMP DP  RH WIND       PRES   REMARKS
BEDFORD +      LGT RAIN  72  68  88 N3        29.98
BLOOMINGTON    CLOUDY    73  69  87 S6        29.98F
MADISON *+     CLOUDY    81  72  74 W8        30.00R
NORTH VERNON + CLOUDY    81  72  74 W6        29.98R
SEYMOUR +      CLOUDY    84  68  58 NW7       29.97R

$$





USA.gov is the U.S. government's official web portal to all federal, state and local government web resources and services.